Preview of NWS' New Version of Forecast
This preview is not operational and should not be used for support decisions.

Regional Weather Roundup (RWR)

Issued by National Weather Service (NWS)

                            
000
ASUS43 KDTX 191410
RWRMI 
MICHIGAN HOURLY REGIONAL WEATHER ROUNDUP
NATIONAL WEATHER SERVICE DETROIT/PONTIAC MI
900 AM EST TUE FEB 19 2019

NOTE: "FAIR" INDICATES FEW OR NO CLOUDS BELOW 12,000 FEET WITH NO
SIGNIFICANT WEATHER AND/OR OBSTRUCTION TO VISIBILITY.

MIZ047>049-052>055-059>063-066>070-074>076-081>083-191500-
SOUTHEAST LOWER MICHIGAN
  
CITY           SKY/WX    TMP DP  RH WIND       PRES   REMARKS
ADRIAN         FAIR      15   8  73 CALM      30.67R                  
ALMA           FAIR      -1  -6  80 CALM      30.66R                  
ANN ARBOR      FAIR      13   7  77 NW3       30.65R                  
BAD AXE        FAIR       6   3  89 CALM      30.64R                  
CARO           FAIR       2  -1  85 CALM      30.65R                  
DETROIT CITY   FAIR      14   8  77 VRB3      30.66R                  
DETROIT        CLOUDY    16   8  71 NW5       30.67R WCI   9          
FLINT          FAIR       5   1  83 CALM      30.65R                  
GROSSE ILE     FAIR      17  11  76 CALM      30.66R                  
HILLSDALE      FAIR      13   8  82 CALM      30.61R                  
HOWELL         FAIR       5   2  84 CALM      30.64R                  

CITY           SKY/WX    TMP DP  RH WIND       PRES   REMARKS
JACKSON        FAIR      10   8  92 CALM      30.64R                  
LAMBERTVILLE   FAIR      19  14  81 CALM      30.67R                  
LANSING        FAIR       9   9 100 CALM      30.65R                  
LAPEER         FAIR       0  -5  79 CALM      30.64R                  
MASON          FAIR      -1  -4  84 CALM      30.65R                  
MONROE         FAIR      17  12  80 N5        30.66R WCI  10          
MT. CLEMENS    PTSUNNY    7   6  94 CALM      30.64R                  
PONTIAC        PTSUNNY    6   2  83 CALM      30.62R                  
PORT HOPE        N/A     13   6  74 W5        30.62R WCI   5          
PORT HURON     FAIR       1  -2  85 CALM      30.65R                  
TRI CITIES     FAIR       5   2  87 SW6       30.66R WCI  -6          
MIDLAND        FAIR       0  -4  82 CALM      30.66R                  
TROY           FAIR      13   5  71 CALM      30.67R                  
SAGINAW HB     FAIR       7   1  78 CALM      30.66R                  
$$
MIZ043>046-050>051-056>058-064>065-071>073-077>080-191500-
SOUTHWEST LOWER MICHIGAN
  
CITY           SKY/WX    TMP DP  RH WIND       PRES   REMARKS
BATTLE CREEK   CLOUDY    12   8  84 MISG      30.64R                  
BENTON HARBOR  CLOUDY    23  14  68 SE8       30.64R WCI  14          
BIG RAPIDS     PTSUNNY   -4  -8  84 CALM      30.61R                  
COLDWATER      FAIR      16  11  80 CALM      30.64R                  
FREMONT        FAIR       4   1  84 CALM      30.63R                  
HOLLAND        CLOUDY    14   7  73 SE7       30.65R WCI   4          
GRAND RAPIDS   PTSUNNY    8   2  76 S7        30.65R WCI  -3          
IONIA          FAIR       3  -1  82 S5        30.65R WCI  -6          
KALAMAZOO      CLOUDY    16   7  67 S3        30.65R                  
LUDINGTON      PTSUNNY   14   7  73 SE3       30.62R                  
MOUNT PLEASANT FAIR       1  -4  77 CALM      30.64R                  
MUSKEGON       FLURRIES  13   5  70 SE9       30.65R WCI   1          
SOUTH HAVEN    CLOUDY    21  13  71 SE3       30.64R                  
$$
MIZ016>042-191500-
NORTHERN LOWER MICHIGAN
  
CITY           SKY/WX    TMP DP  RH WIND       PRES   REMARKS
ALPENA         FAIR      -9 -10  96 CALM      30.61R                  
BEAVER ISLAND  LGT SNOW   0  -3  85 SE3       30.57S                  
BELLAIRE       CLOUDY    -2  -6  82 CALM      30.61R                  
CADILLAC       LGT SNOW  -1  -7  78 CALM      30.55R                  
CHARLEVOIX     PTSUNNY    3  -1  82 SE5       30.61S WCI  -6          
FRANKFORT      FAIR      15   9  75 SE3       30.59R                  
GAYLORD        FAIR      -3  -8  79 CALM      30.53R                  
GRAYLING       PTSUNNY  -11 -15  80 CALM      30.57R                  
HARBOR SPRINGS FAIR      -1  -6  82 E5        30.58R WCI -12          
HOUGHTON LAKE  FAIR      -4  -9  79 CALM      30.59R                  
MANISTEE       FAIR      11   9  92 E3        30.61R                  
OSCODA         FAIR      -3  -8  79 SW5       30.64R WCI -13          
PELLSTON       FAIR      -9 -11  91 CALM      30.59R                  
ROGERS CITY    FAIR       9   3  77 SW3       30.60S                  
TRAVERSE CITY  FAIR       9   5  84 CALM      30.59R                  
$$
MIZ007>008-015-191500-
EASTERN UPPER MICHIGAN
  
CITY           SKY/WX    TMP DP  RH WIND       PRES   REMARKS
KINROSS        FAIR      11   7  84 W3        30.56R                  
MACKINAC ISLAN FAIR       7   3  84 S6        30.58R WCI  -3          
NEWBERRY       FAIR       4   1  87 MISG      30.54R                  
S. S. MARIE    CLOUDY     3  -1  83 E5        30.57R WCI  -6          
MUNISING         N/A     -3  -8  79 S8        30.56R WCI -18          
$$
MIZ004>006-011>014-085-191500-
CENTRAL UPPER MICHIGAN
  
CITY           SKY/WX    TMP DP  RH WIND       PRES   REMARKS
MANISTIQUE     FAIR      -3 -10  72 CALM      30.55S                  
ESCANABA       FAIR      -7 -12  79 CALM      30.58R                  
MENOMINEE      FAIR      -6 -10  83 CALM      30.60R                  
SAWYER-GWINN   SUNNY    -13 -18  77 CALM      30.50R                  
$$
MIZ001>003-009>011-084-191500-
WESTERN UPPER MICHIGAN
  
CITY           SKY/WX    TMP DP  RH WIND       PRES   REMARKS
IRON MOUNTAIN  FAIR     -13 -18  78 NW3       30.51R                  
HOUGHTON       FAIR       1  -7  68 CALM      30.47R                  
COPPER HARBOR    N/A      4  -8  57 SW9       30.50R WCI -10          
IRONWOOD       MOCLDY   -10 -14  82 CALM      30.50R                  
$$

ABBREVIATIONS USED IN REMARKS
   TC - TEMPERATURE IN CELSIUS
  WCI - WIND CHILL INDEX
   HX - HEAT INDEX
  VSB - VISIBILITY